TimeEST,TemperatureF,Dew PointF,Humidity,Sea Level PressureIn,VisibilityMPH,Wind Direction,Wind SpeedMPH,Gust SpeedMPH,PrecipitationIn,Events,Conditions,WindDirDegrees,DateUTC
12:15 AM,32.0,30.2,93,30.37,7.0,Calm,Calm,-,N/A,,Overcast,0,2013-03-08 05:15:00
12:35 AM,32.0,30.2,93,30.36,7.0,Calm,Calm,-,N/A,,Overcast,0,2013-03-08 05:35:00
12:55 AM,32.0,30.2,93,30.36,7.0,Calm,Calm,-,N/A,,Overcast,0,2013-03-08 05:55:00
1:15 AM,32.0,30.2,93,30.36,7.0,Calm,Calm,-,N/A,,Overcast,0,2013-03-08 06:15:00
1:35 AM,30.2,30.2,100,30.37,5.0,Calm,Calm,-,N/A,,Mostly Cloudy,0,2013-03-08 06:35:00
1:55 AM,30.2,30.2,100,30.37,5.0,Calm,Calm,-,N/A,,Mostly Cloudy,0,2013-03-08 06:55:00
2:15 AM,30.2,30.2,100,30.38,4.0,Calm,Calm,-,N/A,,Overcast,0,2013-03-08 07:15:00
2:35 AM,30.2,30.2,100,30.38,4.0,Calm,Calm,-,N/A,,Overcast,0,2013-03-08 07:35:00
2:55 AM,30.2,30.2,100,30.38,5.0,Calm,Calm,-,N/A,,Overcast,0,2013-03-08 07:55:00
3:15 AM,30.2,30.2,100,30.38,3.0,NW,3.5,-,N/A,,Overcast,320,2013-03-08 08:15:00
3:35 AM,30.2,30.2,100,30.37,7.0,Calm,Calm,-,N/A,,Overcast,0,2013-03-08 08:35:00
3:55 AM,32.0,28.4,87,30.37,7.0,North,3.5,-,N/A,,Overcast,10,2013-03-08 08:55:00
4:15 AM,32.0,28.4,87,30.37,10.0,North,3.5,-,N/A,,Overcast,10,2013-03-08 09:15:00
4:35 AM,30.2,28.4,93,30.37,10.0,North,3.5,-,N/A,,Scattered Clouds,10,2013-03-08 09:35:00
4:55 AM,30.2,28.4,93,30.38,10.0,NNE,3.5,-,N/A,,Clear,20,2013-03-08 09:55:00
5:15 AM,30.2,28.4,93,30.38,10.0,NNE,3.5,-,N/A,,Clear,20,2013-03-08 10:15:00
5:35 AM,30.2,28.4,93,30.39,10.0,North,3.5,-,N/A,,Clear,10,2013-03-08 10:35:00
5:55 AM,28.4,26.6,93,30.40,10.0,North,3.5,-,N/A,,Clear,360,2013-03-08 10:55:00
6:15 AM,30.2,26.6,86,30.42,10.0,North,3.5,-,N/A,,Clear,360,2013-03-08 11:15:00
6:35 AM,28.4,26.6,93,30.42,7.0,North,3.5,-,N/A,,Clear,350,2013-03-08 11:35:00
6:55 AM,28.4,26.6,93,30.44,7.0,Calm,Calm,-,N/A,,Clear,0,2013-03-08 11:55:00
7:15 AM,28.4,26.6,93,30.44,7.0,NNE,3.5,-,N/A,,Clear,20,2013-03-08 12:15:00
7:35 AM,28.4,26.6,93,30.45,7.0,Calm,Calm,-,N/A,,Clear,0,2013-03-08 12:35:00
7:55 AM,30.2,26.6,86,30.44,7.0,ENE,3.5,-,N/A,,Clear,60,2013-03-08 12:55:00
8:15 AM,30.2,28.4,93,30.44,7.0,NE,3.5,-,N/A,,Clear,50,2013-03-08 13:15:00
8:35 AM,32.0,28.4,87,30.44,10.0,NE,5.8,-,N/A,,Clear,40,2013-03-08 13:35:00
8:55 AM,32.0,28.4,87,30.45,10.0,NE,6.9,-,N/A,,Clear,50,2013-03-08 13:55:00
9:15 AM,32.0,28.4,87,30.46,10.0,ENE,5.8,-,N/A,,Clear,70,2013-03-08 14:15:00
9:35 AM,33.8,28.4,81,30.46,10.0,ENE,6.9,-,N/A,,Clear,70,2013-03-08 14:35:00
9:55 AM,35.6,28.4,75,30.45,10.0,ENE,9.2,-,N/A,,Clear,70,2013-03-08 14:55:00
10:15 AM,35.6,30.2,81,30.44,10.0,ENE,10.4,-,N/A,,Clear,70,2013-03-08 15:15:00
10:35 AM,35.6,30.2,81,30.44,10.0,ENE,9.2,-,N/A,,Mostly Cloudy,70,2013-03-08 15:35:00
10:55 AM,37.4,28.4,70,30.44,10.0,ESE,8.1,-,N/A,,Mostly Cloudy,110,2013-03-08 15:55:00
11:15 AM,37.4,28.4,70,30.44,10.0,ENE,5.8,-,N/A,,Scattered Clouds,70,2013-03-08 16:15:00
11:35 AM,37.4,28.4,70,30.43,10.0,East,10.4,-,N/A,,Clear,80,2013-03-08 16:35:00
11:55 AM,39.2,28.4,65,30.43,7.0,ENE,8.1,-,N/A,,Scattered Clouds,60,2013-03-08 16:55:00
12:15 PM,39.2,28.4,65,30.42,10.0,ESE,8.1,-,N/A,,Scattered Clouds,120,2013-03-08 17:15:00
12:35 PM,41.0,30.2,65,30.43,10.0,ENE,5.8,-,N/A,,Mostly Cloudy,60,2013-03-08 17:35:00
12:55 PM,41.0,28.4,61,30.43,10.0,East,8.1,-,N/A,,Mostly Cloudy,100,2013-03-08 17:55:00
1:15 PM,41.0,28.4,61,30.42,10.0,NE,8.1,-,N/A,,Scattered Clouds,40,2013-03-08 18:15:00
1:35 PM,42.8,30.2,61,30.42,10.0,East,6.9,-,N/A,,Scattered Clouds,90,2013-03-08 18:35:00
1:55 PM,41.0,28.4,61,30.41,10.0,ENE,4.6,-,N/A,,Scattered Clouds,70,2013-03-08 18:55:00
2:15 PM,42.8,28.4,57,30.41,10.0,Calm,Calm,-,N/A,,Scattered Clouds,0,2013-03-08 19:15:00
2:35 PM,42.8,30.2,61,30.40,10.0,NNE,4.6,-,N/A,,Scattered Clouds,20,2013-03-08 19:35:00
2:55 PM,42.8,30.2,61,30.40,10.0,East,4.6,-,N/A,,Clear,100,2013-03-08 19:55:00
3:15 PM,44.6,30.2,57,30.40,10.0,NNE,4.6,-,N/A,,Clear,20,2013-03-08 20:15:00
3:35 PM,44.6,30.2,57,30.40,10.0,ENE,3.5,-,N/A,,Clear,70,2013-03-08 20:35:00
3:55 PM,44.6,30.2,57,30.38,10.0,ENE,6.9,-,N/A,,Scattered Clouds,70,2013-03-08 20:55:00
4:15 PM,42.8,30.2,61,30.37,10.0,ENE,9.2,-,N/A,,Clear,70,2013-03-08 21:15:00
4:35 PM,42.8,30.2,61,30.37,10.0,NE,9.2,-,N/A,,Clear,50,2013-03-08 21:35:00
4:55 PM,42.8,30.2,61,30.36,10.0,ENE,6.9,-,N/A,,Clear,60,2013-03-08 21:55:00
5:15 PM,42.8,30.2,61,30.37,10.0,NE,5.8,-,N/A,,Clear,50,2013-03-08 22:15:00
5:35 PM,42.8,30.2,61,30.36,10.0,ENE,6.9,-,N/A,,Clear,70,2013-03-08 22:35:00
5:55 PM,42.8,30.2,61,30.36,10.0,ENE,8.1,-,N/A,,Clear,60,2013-03-08 22:55:00
6:15 PM,41.0,30.2,65,30.37,10.0,NNE,4.6,-,N/A,,Clear,30,2013-03-08 23:15:00
6:35 PM,41.0,30.2,65,30.36,10.0,NE,4.6,-,N/A,,Clear,40,2013-03-08 23:35:00
6:55 PM,39.2,30.2,70,30.37,10.0,NNE,3.5,-,N/A,,Clear,30,2013-03-08 23:55:00
7:15 PM,37.4,30.2,75,30.37,10.0,NE,3.5,-,N/A,,Clear,40,2013-03-09 00:15:00
7:35 PM,37.4,30.2,75,30.38,10.0,NNE,3.5,-,N/A,,Clear,20,2013-03-09 00:35:00
7:55 PM,37.4,30.2,75,30.38,10.0,NE,3.5,-,N/A,,Clear,50,2013-03-09 00:55:00
8:15 PM,35.6,30.2,81,30.39,10.0,NNE,3.5,-,N/A,,Clear,20,2013-03-09 01:15:00
8:35 PM,35.6,30.2,81,30.39,10.0,Calm,Calm,-,N/A,,Clear,0,2013-03-09 01:35:00
8:55 PM,33.8,28.4,81,30.40,10.0,Calm,Calm,-,N/A,,Clear,0,2013-03-09 01:55:00
9:15 PM,33.8,28.4,81,30.39,10.0,ENE,4.6,-,N/A,,Clear,60,2013-03-09 02:15:00
9:35 PM,33.8,28.4,81,30.39,10.0,ENE,5.8,-,N/A,,Clear,60,2013-03-09 02:35:00
9:55 PM,33.8,28.4,81,30.38,10.0,ENE,4.6,-,N/A,,Clear,60,2013-03-09 02:55:00
10:15 PM,33.8,28.4,81,30.37,10.0,ENE,6.9,-,N/A,,Clear,70,2013-03-09 03:15:00
10:35 PM,33.8,28.4,81,30.38,10.0,ENE,4.6,-,N/A,,Clear,60,2013-03-09 03:35:00
10:55 PM,32.0,28.4,87,30.39,10.0,NNE,3.5,-,N/A,,Clear,20,2013-03-09 03:55:00
11:15 PM,33.8,28.4,81,30.39,10.0,NE,3.5,-,N/A,,Clear,40,2013-03-09 04:15:00
11:35 PM,32.0,28.4,87,30.38,10.0,ENE,3.5,-,N/A,,Clear,60,2013-03-09 04:35:00
11:55 PM,32.0,28.4,87,30.38,10.0,ENE,3.5,-,N/A,,Clear,60,2013-03-09 04:55:00